Theta_e
350 355 358 363 377 366 359 359 354 356 354 350 354 358 359 351 348 348 343 342 346 347 350 352 352 348 344 340 342 347 349 353 353 351 351 353 354 354 354 354 354 354 354 354 354 354 353 353 354
360 363 365 371 370 360 354 352 357 354 353 352 353 356 358 350 343 346 345 345 346 348 350 350 350 348 346 345 345 349 352 355 353 355 352 353 352 354 354 354 354 354 352 353 354 355 354 354 354
363 366 373 377 358 357 356 349 349 354 352 353 356 354 356 354 343 343 343 344 347 348 351 350 349 351 352 352 353 354 354 354 353 350 350 352 352 355 351 355 350 354 354 353 354 354 354 353 353
368 369 372 354 356 353 353 351 352 351 349 353 355 358 354 347 343 344 344 346 349 351 352 349 352 354 355 355 355 355 354 353 352 351 350 350 347 354 350 353 354 353 351 354 353 353 352 351 348
365 368 355 357 352 353 351 351 350 350 352 355 355 357 359 352 348 345 346 350 351 351 354 352 352 355 355 355 355 354 354 354 353 351 348 347 347 348 346 349 348 353 353 353 350 353 352 351 348
364 366 349 353 354 351 353 347 348 349 351 354 355 357 358 352 350 349 350 351 352 352 351 353 352 352 354 355 352 350 350 352 351 353 350 346 349 341 347 353 352 352 353 352 353 353 352 351 349
356 352 348 351 355 354 352 347 348 351 351 355 352 358 356 354 352 351 350 351 352 352 350 352 351 355 356 356 350 349 349 351 352 353 350 348 350 342 339 343 345 350 353 350 352 351 350 349 348
346 344 347 351 357 356 351 352 347 349 351 350 351 359 358 352 352 353 352 351 352 350 349 348 350 354 353 353 350 352 354 351 354 349 349 351 346 341 339 338 344 343 347 345 350 352 352 350 349
344 350 352 351 353 354 352 350 348 347 349 349 352 353 351 350 351 352 352 353 352 344 349 346 348 349 349 350 347 344 341 342 347 347 350 344 347 340 340 340 338 348 348 347 350 348 350 350 350
346 351 351 350 351 351 351 351 350 350 350 352 352 351 350 350 351 352 352 351 353 347 348 346 345 345 346 351 350 351 351 345 351 351 346 349 349 348 344 341 338 341 346 349 351 350 348 348 345
345 349 350 351 349 350 351 351 350 352 351 350 355 352 350 351 351 351 352 348 347 348 346 345 344 344 350 350 349 352 352 351 352 348 347 347 349 345 344 342 345 346 345 345 344 346 348 346 343
346 348 350 350 349 349 345 344 350 350 351 349 351 350 349 349 349 348 348 346 345 345 343 343 346 350 348 348 352 347 348 349 350 350 348 349 346 346 344 344 343 343 344 340 345 345 341 344 345
347 347 349 349 349 348 346 347 347 349 350 349 350 350 350 349 348 347 346 345 343 343 343 345 347 349 351 350 349 346 350 349 348 347 348 345 348 345 343 345 346 343 342 344 343 344 344 344 345
344 348 350 350 350 351 352 351 348 350 350 350 350 350 349 349 348 347 344 343 342 341 343 348 350 350 349 349 351 351 346 347 350 349 350 347 349 348 345 346 346 346 346 342 344 343 344 345 343
344 350 349 350 351 347 347 353 351 349 350 350 351 350 349 349 348 347 347 346 345 343 343 346 352 353 350 352 350 349 349 352 349 352 350 348 345 346 345 349 348 346 347 347 344 340 346 345 345
344 351 361 349 354 347 342 352 352 349 351 352 352 351 350 350 349 348 349 349 348 347 346 347 349 354 352 352 352 351 352 353 354 354 352 348 348 348 349 350 350 349 348 349 346 343 341 343 344
348 353 352 352 348 353 354 360 353 351 351 352 353 352 351 350 349 348 348 349 349 349 349 349 349 352 356 353 353 353 353 351 349 348 341 343 349 352 352 352 352 349 350 349 350 349 345 342 343
352 355 352 352 347 345 353 358 355 353 352 352 352 352 352 351 350 348 348 348 349 350 350 351 351 351 355 346 345 351 357 355 349 348 348 340 347 342 340 348 346 351 352 351 351 350 350 349 347
346 351 352 346 340 340 343 349 357 353 352 353 351 351 351 351 350 349 349 348 349 349 352 353 352 353 355 355 355 355 355 355 353 353 354 353 348 347 349 349 350 349 350 351 350 350 351 352 350
342 342 342 344 340 339 348 349 348 353 353 352 352 351 351 351 350 351 349 347 348 352 351 353 353 357 357 357 357 354 354 353 355 356 355 356 357 355 353 353 355 353 353 353 352 351 351 350 349
341 340 343 346 343 340 342 345 345 353 355 353 352 350 350 351 351 351 350 350 350 350 344 351 355 357 357 359 358 358 358 357 357 355 358 359 357 356 356 354 355 354 355 354 354 351 350 348 350
340 339 341 342 341 340 343 345 347 347 351 355 353 352 349 351 352 354 351 350 352 340 343 351 358 359 357 359 359 358 357 354 355 356 357 359 358 359 359 358 356 356 355 353 352 351 353 352 351
340 339 341 341 341 340 339 346 358 348 357 346 351 353 351 353 355 350 353 348 352 348 353 351 361 360 359 359 355 355 353 350 348 352 351 356 357 358 358 355 356 356 355 354 353 353 351 350 350
338 338 339 340 339 339 344 344 356 357 355 343 345 348 352 351 356 352 353 348 352 350 354 363 360 360 358 354 350 350 344 346 351 347 351 353 353 355 351 349 349 350 349 348 349 350 351 350 350
337 337 340 342 340 341 345 346 349 350 349 345 347 353 352 352 356 357 350 348 352 355 357 361 361 360 360 357 347 342 340 355 351 349 352 351 350 349 346 344 343 343 342 342 343 345 348 348 349
334 335 339 345 339 344 350 347 348 350 348 347 346 351 352 357 359 357 353 352 354 355 358 360 358 358 354 352 354 353 352 350 352 352 351 349 346 341 338 337 336 335 335 337 336 337 341 339 341
332 335 335 335 333 334 340 345 345 344 347 347 346 351 353 358 359 358 357 356 356 357 359 359 356 354 353 353 351 349 349 348 348 347 343 340 337 335 334 333 333 333 333 333 332 333 335 334 334
330 331 331 333 337 337 334 347 352 360 360 356 350 351 354 359 360 360 358 357 356 356 356 355 354 354 352 350 349 347 346 345 342 338 336 335 334 333 333 332 332 334 332 330 330 331 333 333 333
330 329 329 330 332 336 337 349 351 359 352 354 348 357 358 358 361 359 358 355 357 356 354 354 352 350 348 348 345 343 341 338 336 334 333 332 332 332 331 331 331 329 329 328 329 329 330 329 330
330 330 329 332 331 332 336 342 349 350 345 348 345 359 358 360 359 356 357 355 355 354 353 350 349 347 346 344 342 339 337 335 333 332 331 331 331 330 330 328 328 328 324 323 324 326 327 328 328
Wind_Speed
13 12 10 10 5 4 9 8 12 9 17 13 23 19 21 25 16 6 16 30 13 14 10 9 10 11 13 14 13 11 10 9 10 12 11 10 8 9 10 10 10 10 11 11 12 12 11 10 10
13 11 11 3 1 11 11 12 19 11 14 12 18 20 22 16 10 12 13 18 14 11 11 10 12 13 13 13 11 10 10 9 9 10 10 9 8 10 9 10 10 10 10 11 11 10 11 10 10
15 13 4 4 9 10 7 12 11 18 9 12 18 17 10 7 15 23 16 22 17 13 12 13 13 13 14 14 12 11 11 9 8 9 9 8 8 9 9 9 9 10 10 10 10 11 10 9 8
10 5 6 9 15 13 11 9 16 8 12 21 21 17 12 18 25 17 27 22 17 15 15 14 14 13 13 13 12 11 10 8 7 7 6 8 8 9 8 8 8 9 10 11 10 9 9 8 7
22 6 6 11 14 12 11 11 12 12 16 20 22 17 19 23 23 27 24 19 18 16 17 15 14 13 12 12 11 10 9 7 6 5 6 8 9 7 8 7 6 7 9 9 10 9 8 6 6
10 6 11 12 14 12 10 9 14 14 18 21 22 20 11 29 28 27 24 20 16 22 17 15 14 13 13 12 11 10 8 7 7 6 6 8 7 9 7 6 6 6 7 9 9 8 7 5 4
14 4 15 14 12 9 14 9 10 16 14 21 23 22 16 18 28 26 21 19 16 18 21 18 15 14 13 12 11 10 8 6 6 5 5 8 8 8 4 6 6 6 6 8 7 7 6 5 4
8 12 18 15 12 8 8 12 10 13 16 19 18 15 17 19 29 26 21 12 20 14 14 17 17 14 13 12 13 11 9 7 7 6 7 8 7 6 4 4 7 6 6 7 8 7 8 6 6
8 12 13 17 12 6 11 13 12 10 7 8 17 25 24 28 28 22 18 17 16 20 15 21 16 14 17 17 15 12 10 9 8 8 9 7 6 3 1 5 6 7 7 8 8 8 8 8 9
14 11 16 15 14 13 12 11 10 11 9 15 18 26 32 29 27 23 20 19 28 30 22 22 20 19 17 19 12 15 11 11 10 11 7 7 6 8 3 6 7 6 8 7 10 11 10 10 12
14 14 15 12 10 13 11 9 12 9 12 14 20 20 20 33 25 23 25 25 19 23 22 21 16 14 16 13 20 17 10 16 15 10 10 7 6 6 10 6 7 7 7 9 12 11 10 13 15
9 15 12 10 11 9 11 10 11 13 12 18 20 20 17 15 13 12 8 15 17 11 11 15 13 11 11 9 2 10 9 17 8 9 8 8 8 6 9 9 10 10 10 10 7 14 17 19 13
16 12 12 9 9 12 14 12 10 11 12 18 20 19 17 16 14 16 20 18 18 14 12 14 12 8 7 6 3 7 6 10 12 12 12 14 11 11 7 9 5 4 9 11 10 11 9 11 15
4 12 14 12 10 13 10 2 9 10 15 18 19 18 16 12 18 15 15 15 18 16 14 18 15 14 8 3 2 9 8 3 4 6 7 6 8 7 10 9 9 10 9 9 11 8 10 15 17
7 28 28 9 12 9 15 8 10 13 16 18 18 16 15 15 18 16 18 17 19 18 20 17 16 15 13 7 3 7 10 3 6 3 8 10 11 8 11 10 12 14 12 14 11 13 10 12 16
13 23 10 24 22 12 19 8 14 16 17 17 17 14 13 15 17 19 21 26 20 19 21 20 19 18 16 12 12 10 8 6 4 3 6 5 5 6 10 10 11 12 12 15 15 17 17 19 19
17 12 11 13 12 19 12 6 17 17 16 16 15 14 13 11 13 13 17 18 15 23 17 19 17 22 20 15 10 13 9 5 5 5 4 1 4 3 5 9 9 9 12 14 14 15 16 19 20
13 7 22 25 13 10 12 15 19 19 17 15 15 15 13 13 13 17 19 18 21 28 16 15 13 19 18 12 19 12 9 9 9 8 10 6 6 7 4 5 9 8 10 11 12 15 16 18 21
21 29 32 19 6 8 13 2 15 15 17 17 15 15 15 16 13 21 17 17 19 19 20 18 17 19 20 18 21 14 12 9 11 10 11 8 9 8 8 10 11 10 7 8 9 10 13 15 17
7 14 11 8 4 6 14 16 29 27 17 16 15 17 15 16 15 17 18 16 19 11 11 17 15 17 15 17 15 9 10 7 7 6 8 7 8 9 8 10 12 9 9 10 10 9 10 11 11
11 15 6 10 17 8 8 5 11 13 14 13 14 16 17 15 18 16 14 16 23 22 11 24 20 15 14 12 12 8 5 3 4 7 7 6 8 7 3 6 5 7 6 8 6 9 8 12 15
12 12 9 16 10 13 10 11 7 6 3 3 13 14 17 16 18 16 14 23 32 31 24 48 23 20 16 12 10 8 6 5 10 7 6 2 1 1 0 4 7 7 6 6 8 9 10 11 15
16 19 5 10 14 17 22 4 4 15 6 17 17 16 16 17 20 18 14 18 25 28 25 27 20 16 13 12 7 6 4 9 6 7 1 3 5 3 3 3 4 8 6 7 8 8 9 10 12
13 18 17 13 11 13 8 11 4 6 9 17 31 29 18 20 19 17 19 16 9 10 12 20 16 12 15 12 15 12 11 7 3 11 12 9 5 6 4 7 8 10 11 13 12 12 12 12 12
18 17 12 12 12 7 6 3 7 9 23 27 31 22 17 20 21 17 14 14 12 12 10 15 16 12 10 8 6 5 3 3 3 4 6 7 7 6 10 9 10 10 11 13 14 13 13 13 12
21 20 14 16 14 4 4 5 5 13 31 29 11 18 18 24 21 19 17 17 14 13 15 17 15 13 10 7 4 3 4 3 4 4 2 4 7 8 8 9 9 9 10 11 13 11 11 14 14
21 18 21 18 19 16 12 3 14 11 16 5 8 17 17 24 21 19 16 18 15 16 15 16 16 12 10 10 9 7 4 4 4 3 5 10 8 9 10 9 11 12 13 14 14 14 15 15 15
19 20 16 12 17 18 15 11 6 20 10 6 4 13 14 19 21 19 14 18 20 15 14 14 12 10 13 12 13 11 10 8 7 7 9 8 8 9 10 11 12 13 13 15 14 12 16 15 14
14 17 18 17 11 12 14 4 19 25 20 11 3 10 13 17 18 16 15 19 23 22 19 15 14 12 12 13 13 12 10 8 9 9 8 8 8 9 10 12 12 13 14 16 15 16 14 16 16
16 18 19 13 14 15 15 2 17 23 9 1 3 11 15 15 17 17 17 19 28 23 21 17 16 16 14 12 11 10 9 8 8 8 7 8 8 9 10 9 10 14 16 15 16 16 14 13 13
Wind_Direction
160 176 204 244 283 98 6 52 66 90 75 65 68 67 68 131 134 181 150 172 157 146 141 131 127 128 129 135 134 128 121 118 110 103 105 100 108 111 111 114 115 115 116 117 119 117 117 118 120
186 182 226 281 340 45 55 75 84 78 75 53 84 83 71 94 116 105 113 163 149 149 137 138 130 127 134 143 146 137 128 119 114 113 108 107 113 108 112 121 121 121 119 117 117 117 117 117 121
235 247 236 240 62 83 73 80 74 81 41 64 61 75 68 106 119 139 145 154 154 153 145 155 142 135 129 129 130 135 131 121 120 108 105 118 115 112 114 113 125 123 120 117 119 117 117 115 114
232 232 234 69 72 69 79 75 74 43 95 106 103 69 90 124 142 147 145 149 159 155 157 161 149 143 134 133 133 132 130 135 122 115 114 100 110 112 110 112 117 116 124 124 124 125 123 121 116
243 258 84 88 66 69 64 94 121 85 71 95 101 105 98 126 150 143 151 160 166 158 146 146 151 143 138 138 132 137 137 136 127 118 107 103 111 105 113 117 120 121 125 131 135 137 130 121 125
260 211 60 56 68 49 87 84 86 90 87 102 100 103 111 124 136 153 162 172 181 160 151 144 146 144 146 141 141 139 143 136 130 122 111 115 128 128 123 126 145 132 140 142 145 149 151 142 135
284 70 81 85 77 56 55 58 67 93 122 110 113 113 133 141 146 149 160 170 180 164 142 148 152 150 145 143 150 149 147 142 137 129 126 127 146 142 113 147 156 160 160 162 163 174 177 176 178
311 72 83 81 78 84 118 53 55 74 100 161 112 127 149 136 134 154 148 165 155 152 152 153 155 158 157 161 163 155 153 163 155 146 138 141 158 175 168 192 169 168 177 176 177 188 199 210 228
303 76 58 67 86 118 126 88 80 120 115 60 128 138 142 140 145 135 147 159 112 197 189 161 162 173 186 176 170 165 166 173 159 154 159 154 149 194 18 170 179 172 195 195 194 204 214 218 238
90 69 58 67 76 76 78 117 147 125 110 109 114 125 151 151 154 159 167 163 174 194 190 164 167 177 196 173 178 166 175 176 164 178 171 174 175 196 141 151 187 197 204 220 214 211 214 229 233
87 101 95 64 78 96 123 146 141 166 131 122 125 135 152 159 159 170 173 171 188 177 157 176 161 162 127 168 198 182 187 194 183 193 189 190 197 208 199 164 184 189 216 232 240 228 231 238 250
100 88 90 89 90 100 90 73 63 57 101 122 136 144 156 164 147 189 124 157 140 181 170 150 154 151 169 205 353 135 190 174 190 184 198 208 219 205 183 178 181 194 237 214 247 219 263 261 274
121 120 106 109 106 79 68 80 98 101 112 127 137 157 161 175 172 163 159 159 154 179 180 151 156 165 145 143 138 152 226 200 187 206 206 214 213 215 203 221 217 232 212 230 241 222 222 242 266
139 147 144 145 116 107 90 104 108 122 128 135 150 163 172 175 166 161 156 155 165 180 179 152 151 178 206 160 73 179 191 226 172 171 211 208 256 223 225 242 233 240 249 238 229 235 232 240 251
166 49 11 151 146 83 61 342 132 145 144 150 164 172 165 176 159 167 165 168 175 180 167 171 169 174 175 201 189 187 187 226 241 231 244 245 249 256 248 244 253 247 247 243 251 244 245 249 258
252 101 177 274 117 139 125 229 150 158 161 164 170 174 167 175 168 170 171 167 168 177 160 169 178 169 172 190 226 215 205 204 181 214 261 279 243 248 259 246 251 262 245 257 262 251 249 249 257
5 19 284 246 146 161 175 248 159 172 173 170 174 176 178 180 166 171 170 163 173 148 175 175 170 166 168 177 197 214 227 201 171 203 142 242 226 226 270 269 266 268 253 248 244 261 255 257 264
186 57 291 269 166 197 183 157 163 179 177 174 180 172 184 180 191 173 172 178 181 155 176 168 173 155 162 136 237 228 208 195 204 215 248 241 205 211 246 315 248 250 261 256 253 251 257 260 259
189 178 207 233 147 228 273 264 120 186 190 176 182 171 185 184 190 166 199 176 167 159 163 160 198 169 166 167 193 200 207 209 219 225 243 240 253 261 270 264 265 286 262 264 266 264 261 266 271
279 267 246 24 142 232 106 198 106 248 201 185 182 171 187 185 167 162 191 180 164 85 178 180 196 177 187 188 193 194 188 212 217 241 222 237 253 268 259 272 266 282 281 281 281 285 277 295 295
257 271 117 161 264 276 290 189 179 169 193 191 191 186 186 185 168 169 183 165 106 116 305 283 188 191 204 218 167 157 167 185 218 240 227 218 253 251 255 289 288 300 319 315 321 308 280 293 308
241 275 321 315 289 285 212 286 166 296 169 291 207 200 190 184 169 161 171 106 124 116 186 236 217 188 206 206 174 173 182 204 244 214 215 211 241 216 237 356 353 336 336 338 322 316 292 280 290
261 283 196 281 294 286 284 193 255 271 357 334 279 221 203 169 154 164 168 147 165 172 185 224 171 183 195 199 72 190 84 66 353 279 314 253 196 140 102 34 18 20 7 347 331 316 309 307 291
260 268 276 279 272 271 4 15 131 172 210 194 251 265 194 163 157 164 156 155 175 160 174 138 159 165 174 171 183 174 158 129 250 265 275 240 162 136 46 34 23 12 1 354 350 343 332 311 300
246 251 261 248 252 261 75 98 165 110 279 231 219 216 182 156 145 150 149 154 181 138 141 135 142 148 142 162 177 322 106 115 231 293 293 35 28 38 22 20 14 2 353 347 343 337 337 340 334
228 249 254 254 260 178 313 239 165 104 262 213 170 158 167 139 151 156 157 166 150 159 149 133 142 149 143 142 141 93 112 100 74 35 5 60 46 55 30 18 17 11 12 10 354 360 3 7 6
253 250 244 274 280 278 243 185 136 166 358 238 152 148 159 145 151 146 158 153 148 129 135 140 150 163 160 150 148 135 124 103 108 68 49 57 41 26 29 23 22 22 22 19 9 11 16 15 4
236 258 252 231 254 272 273 206 118 81 283 3 295 151 149 141 145 148 155 132 126 137 134 138 142 145 136 126 127 121 111 104 96 74 60 55 48 37 36 31 28 35 30 15 9 16 13 16 11
220 241 259 278 280 276 263 139 151 153 178 172 267 157 155 145 143 146 140 147 136 132 132 134 141 128 129 124 117 120 115 107 90 78 64 54 50 45 43 39 31 30 27 23 15 10 14 6 9
231 254 235 248 259 267 281 219 171 163 133 231 97 167 157 150 148 152 141 155 128 138 139 148 153 148 135 126 124 116 106 95 85 71 63 54 49 49 43 49 39 43 35 27 21 14 9 11 4